Regional Weather Roundup
Issued by NWS State College, PA

Home | Current Version | Previous Version | Graphics & Text | Print | Product List | Glossary On
Versions: 1 2 3 4 5 6 7 8 9 10 11 12 13 14 15 16 17 18 19 20 21 22 23 24 25 26 27 28 29 30 31 32 33 34 35 36 37 38 39 40 41 42 43 44 45 46 47 48 49 50
000
ASUS41 KCTP 131203
RWRCTP

REGIONAL WEATHER ROUNDUP
NATIONAL WEATHER SERVICE STATE COLLEGE PA
800 AM EDT SUN JUL 13 2014

Note: "fair" indicates few or no clouds below 12,000 feet with no
significant weather and/or obstructions to visibility.

* = STATION THAT DOES NOT REPORT PRECIPITATION /E.G. RAIN...SNOW...ETC/
    THUNDER OR FOG.

PAZ002>004-007>009-013>016-020>023-029>032-131300-
WESTERN PENNSYLVANIA

CITY           SKY/WX    TMP DP  RH WIND       PRES   REMARKS
ERIE           LGT RAIN  73  66  78 S16G22    29.86S
MEADVILLE      CLOUDY    70  65  84 S8        29.93F
FRANKLIN*      CLOUDY    68  63  83 S14       29.98S
NEW CASTLE       N/A     72  67  84 CALM      29.96F
BEAVER COUNTY  NOT AVBL
BUTLER*        PTSUNNY   73  63  68 S7        30.00S
PITTSBURGH INT PTSUNNY   75  64  68 S7        29.99S
PITTSBURGH     CLOUDY    72  62  71 S10       30.00S
INDIANA*       PTSUNNY   72  63  73 SW6       30.06S
LATROBE        PTSUNNY   73  64  73 SW7       30.03S
WASHINGTON CO* PTSUNNY   73  63  68 S8        30.02S
$$

PAZ004>006-010>012-017>019-024>028-033>037-041-042-045-046-049>053-131300-
CENTRAL PENNSYLVANIA

CITY           SKY/WX    TMP DP  RH WIND       PRES   REMARKS
BRADFORD       CLOUDY    68  61  78 S5        29.99F
DUBOIS         LGT RAIN  70  62  76 SW8       30.01F
CLEARFIELD     CLOUDY    68  63  84 SW3       30.02F HAZE
JOHNSTOWN      PTSUNNY   70  58  65 SW10      30.07F
ALTOONA        CLOUDY    71  65  81 SW7       30.06S
STATE COLLEGE  CLOUDY    70  66  88 W7        30.02F
WILLIAMSPORT   PTSUNNY   74  67  78 E9        29.98F
SELINSGROVE    PTSUNNY   75  69  81 VRB5      30.02F
FT INDIANTOWN  CLOUDY    72  72 100 NE1       30.05F
CAPITAL CITY   MOSUNNY   74  68  81 VRB7      30.03F
HARRISBURG     PTSUNNY   75  69  81 VRB5      30.03F
YORK           MOSUNNY   75  69  81 VRB6      30.05S
$$

PAZ038>040-043-044-047-048-054-055-060>062-067>071-131300-
EASTERN PENNSYLVANIA

CITY           SKY/WX    TMP DP  RH WIND       PRES   REMARKS
SCRANTON       PTSUNNY   75  67  76 SW7       30.04S
MOUNT POCONO   CLOUDY    68  66  93 SW8       30.11R FOG
ALLENTOWN      CLOUDY    74  68  81 S6        30.07
QUAKERTOWN*    CLOUDY    72  68  88 S6        30.09S
READING        PTSUNNY   77  70  79 S9        30.05R
LANCASTER      CLOUDY    74  69  85 S7        30.06S
COATESVILLE    CLOUDY    72  72 100 S5        30.09S
POTTSTOWN      CLOUDY    73  69  87 S7        30.09S
BLUE BELL      CLOUDY    73  70  88 S6        30.07F
DOYLESTOWN     CLOUDY    71  69  93 S5        30.08S
WILLOW GROVE   NOT AVBL
NORTH PHILA    CLOUDY    75  67  76 S5        30.09F
PHILADELPHIA   CLOUDY    74  67  78 S9        30.08F
$$


USA.gov is the U.S. government's official web portal to all federal, state and local government web resources and services.